EW8214 Weather Reports


time (UTC)temp
F
wind
direction
speed
knots
gust
knots
rain 1hr
in
rain 24hr
in
rain mn
in
humidity
%
barometer
mb
20260506144531 56 306 0.0 0.9 0.00 0.00 0.00 94 1017.2
20260506143025 54 307 0.0 0.9 0.00 0.00 0.00 97 1017.1
20260506141518 51 307 0.0 0.9 0.00 0.00 0.00 97 1016.9
20260506140018 49 307 0.0 1.7 0.00 0.00 0.00 96 1016.9
20260506134517 49 306 0.0 1.7 0.00 0.00 0.00 96 1016.9
20260506133016 48 306 0.0 0.9 0.00 0.00 0.00 96 1016.9
20260506131516 48 306 0.0 0.9 0.00 0.00 0.00 95 1016.6
20260506130013 48 306 0.0 0.0 0.00 0.00 0.00 95 1016.3
20260506124511 48 306 0.0 0.9 0.00 0.00 0.00 95 1016.3
20260506123011 48 306 0.0 0.9 0.00 0.00 0.00 95 1016.3
20260506121512 48 306 0.0 0.9 0.00 0.00 0.00 94 1016.3
20260506120014 48 306 0.0 0.0 0.00 0.00 0.00 94 1016.4
20260506114506 48 306 0.0 0.9 0.00 0.00 0.00 94 1016.5
20260506113007 49 306 0.0 0.9 0.00 0.00 0.00 94 1016.5
20260506111504 49 306 0.0 0.0 0.00 0.00 0.00 94 1016.4
20260506110003 49 306 0.0 0.9 0.00 0.00 0.00 94 1016.5
20260506104501 50 306 0.0 0.0 0.00 0.00 0.00 94 1016.3
20260506103102 50 306 0.0 0.0 0.00 0.00 0.00 95 1016.3
20260506101617 50 306 0.0 0.9 0.00 0.00 0.00 94 1016.2
20260506100119 50 306 0.0 1.7 0.00 0.00 0.00 94 1016.2
20260506094555 51 306 0.0 0.0 0.00 0.00 0.00 94 1016.3
20260506093054 51 306 0.0 0.0 0.00 0.00 0.00 94 1016.3
20260506091553 51 306 0.0 0.0 0.00 0.00 0.00 94 1016.5
20260506090052 52 306 0.0 0.0 0.00 0.00 0.00 94 1016.4
20260506084614 52 306 0.0 0.0 0.00 0.00 0.00 93 1016.6
20260506083049 52 306 0.0 0.0 0.00 0.00 0.00 93 1016.5
20260506081553 52 306 0.0 0.0 0.00 0.00 0.00 92 1016.7
20260506073047 53 306 0.0 0.0 0.00 0.00 0.00 91 1016.5
20260506071539 54 306 0.0 0.0 0.00 0.00 0.00 91 1016.4
20260506061533 55 307 0.0 0.9 0.00 0.00 0.00 90 1016.1
20260506044551 56 308 0.0 1.7 0.00 0.00 0.00 87 1015.4
20260506043025 56 309 0.0 0.9 0.00 0.00 0.00 86 1015.4
20260506041525 56 309 0.0 0.9 0.00 0.00 0.00 85 1015.2
20260506040025 56 310 0.0 1.7 0.00 0.00 0.00 85 1015.0
20260506034543 57 310 0.0 0.9 0.00 0.00 0.00 84 1014.9
20260506033019 57 300 0.9 2.6 0.00 0.00 0.00 83 1014.6
20260506031519 57 292 0.9 2.6 0.00 0.00 0.00 82 1014.5
20260506030019 58 300 0.0 3.5 0.00 0.00 0.00 81 1014.2
20260506024516 58 302 0.0 2.6 0.00 0.00 0.00 81 1013.9
20260506023016 58 271 0.0 1.7 0.00 0.00 0.00 82 1013.7
20260506021515 59 250 0.9 3.5 0.00 0.00 0.00 80 1013.7
20260506020015 59 277 0.0 3.5 0.00 0.00 0.00 80 1013.5
20260506014517 59 236 0.9 7.8 0.00 0.00 0.00 79 1013.3
20260506013014 60 260 0.9 6.1 0.00 0.00 0.00 78 1013.3
20260506011517 61 250 0.9 7.0 0.00 0.00 0.00 77 1013.3
20260506010014 61 313 0.9 7.0 0.00 0.00 0.00 77 1013.4
20260506004528 62 251 0.9 6.1 0.00 0.00 0.00 77 1013.3
20260506003013 62 254 0.9 4.3 0.00 0.00 0.00 77 1013.1
20260506001511 62 275 0.9 4.3 0.00 0.00 0.00 78 1013.1
20260506000011 62 252 0.9 7.0 0.00 0.00 0.00 78 1013.1
20260505234515 63 242 0.9 7.8 0.00 0.00 0.00 78 1013.0
20260505233011 62 248 0.9 7.0 0.00 0.00 0.00 77 1013.2
20260505231510 63 267 1.7 7.8 0.00 0.00 0.00 76 1013.3
20260505230009 63 254 0.9 7.8 0.00 0.00 0.00 76 1013.3
20260505224508 64 254 0.9 7.0 0.00 0.00 0.00 74 1013.4
20260505223006 63 332 0.9 8.7 0.00 0.00 0.00 74 1013.5
20260505221507 63 252 0.9 7.0 0.00 0.00 0.00 73 1013.6
20260505220013 63 280 0.9 6.1 0.00 0.00 0.00 72 1013.7
20260505214505 63 245 0.9 7.0 0.00 0.00 0.00 75 1014.0
20260505213004 62 273 1.7 7.0 0.00 0.00 0.00 74 1014.1
20260505211505 62 297 0.9 7.8 0.00 0.00 0.00 73 1014.1
20260505210003 62 267 0.9 7.0 0.00 0.00 0.00 72 1014.1
20260505204502 63 273 0.9 7.0 0.00 0.00 0.00 70 1014.1
20260505203002 62 250 2.6 10.4 0.00 0.00 0.00 72 1014.3
20260505201501 63 267 0.9 4.3 0.00 0.00 0.00 72 1014.4
20260505200105 62 238 1.7 8.7 0.00 0.00 0.00 74 1014.3
20260505194600 63 275 1.7 8.7 0.00 0.00 0.00 71 1014.3
20260505193100 64 242 1.7 8.7 0.00 0.00 0.00 71 1014.3
20260505191601 64 255 0.9 7.8 0.00 0.00 0.00 71 1014.3
20260505190056 63 238 0.9 7.8 0.00 0.00 0.00 72 1014.4
20260505184601 64 301 0.9 6.1 0.00 0.00 0.00 71 1014.3
20260505183052 63 281 1.7 7.0 0.00 0.00 0.00 72 1014.4
20260505181548 63 254 1.7 7.0 0.00 0.00 0.00 72 1014.2
20260505180053 64 247 1.7 7.0 0.00 0.00 0.00 71 1014.2
20260505174600 63 308 0.0 7.0 0.00 0.00 0.00 72 1014.0
20260505173040 63 295 1.7 6.1 0.00 0.00 0.00 71 1013.8
20260505171539 63 296 0.9 4.3 0.00 0.00 0.00 71 1013.8
20260505170043 63 250 0.0 3.5 0.00 0.00 0.00 74 1013.9
20260505164536 62 305 0.9 4.3 0.00 0.00 0.00 72 1014.0
20260505163037 62 308 0.0 4.3 0.00 0.00 0.00 74 1014.0
20260505161528 60 247 0.9 4.3 0.00 0.00 0.00 75 1013.9
20260505153023 59 306 0.0 0.0 0.00 0.00 0.00 82 1013.6
20260505151517 57 296 0.0 0.0 0.00 0.00 0.00 86 1013.6